Wind_Speed
16 16 16 16 16 16 17 17 17 18 18 19 20 20 20 20 20 20 20 20 21 21 21 20 20 19 19 19 19 19 19 19 20 20 20 20 20 19 19 19 19 19 19
15 16 16 17 17 17 17 17 18 18 18 19 19 19 20 21 21 21 21 21 21 22 22 22 22 21 20 20 21 21 20 20 21 21 21 21 20 20 20 20 20 20 20
15 15 15 16 16 17 17 18 18 18 19 19 20 20 20 20 21 21 22 22 22 22 23 23 23 22 22 22 22 22 22 22 21 21 21 21 21 21 20 20 21 20 20
16 16 16 16 17 17 17 18 18 19 19 20 21 21 21 21 21 22 22 21 22 22 23 23 24 23 23 24 23 23 23 23 22 22 21 21 21 21 20 20 20 20 21
18 18 18 18 18 18 18 18 18 19 19 20 20 20 21 21 21 22 23 23 23 23 23 24 24 24 24 24 24 24 24 24 24 23 22 21 22 22 22 22 21 21 22
19 19 20 20 19 19 19 19 19 19 19 20 21 20 21 21 22 22 23 23 23 23 23 23 24 24 25 25 24 24 24 24 23 23 23 22 22 23 23 23 22 22 22
21 21 21 21 21 20 20 19 19 20 20 20 20 20 21 22 22 22 23 23 23 23 24 24 24 25 25 25 25 24 25 25 25 24 23 23 22 22 23 23 23 23 23
23 23 22 22 22 22 21 21 21 20 20 20 20 20 20 21 22 22 23 24 24 24 24 24 24 25 25 25 25 25 25 25 26 25 24 24 24 24 24 24 24 24 24
23 23 23 23 23 23 22 21 22 21 21 21 21 21 20 20 20 22 23 24 24 24 24 24 24 25 26 27 26 26 26 26 26 26 26 25 25 25 25 25 25 25 24
23 23 23 23 23 24 23 23 23 22 22 22 22 22 22 22 22 22 23 24 24 24 24 25 26 26 26 26 26 26 27 27 27 27 27 26 25 25 26 26 26 27 26
23 23 23 24 24 25 25 24 24 24 24 23 23 23 23 23 23 23 23 24 25 25 25 25 25 26 27 27 27 27 28 28 27 27 27 26 26 25 25 26 26 27 27
23 23 23 24 25 25 24 25 25 25 25 25 24 24 24 24 24 24 24 24 24 26 25 25 25 26 26 27 27 27 28 28 27 27 28 27 25 25 25 26 26 27 27
22 23 24 24 25 25 26 26 25 25 26 25 25 25 25 25 25 25 25 24 24 25 26 26 26 26 26 26 27 28 28 28 28 28 29 28 27 26 26 26 27 27 28
23 23 24 24 25 25 26 26 26 26 26 26 25 25 25 26 26 26 26 26 26 26 27 28 28 27 26 27 27 27 28 28 28 28 29 29 29 28 28 28 28 29 29
23 24 24 24 24 25 26 26 26 26 26 26 26 26 27 27 27 27 26 27 27 27 27 28 28 28 28 28 27 27 28 28 29 28 29 30 30 29 29 29 29 29 29
23 23 24 24 24 24 25 25 26 26 26 27 27 27 27 27 28 27 26 26 26 26 25 25 26 27 27 27 28 28 28 28 28 29 29 29 30 30 29 29 30 30 30
23 23 23 24 24 24 24 25 26 27 27 27 28 28 28 28 28 28 26 26 25 26 25 25 24 25 25 25 27 27 28 28 29 29 29 30 30 30 30 30 30 30 31
23 23 23 23 24 25 24 24 25 25 26 26 27 27 27 27 27 27 26 26 25 25 25 25 24 25 24 24 25 27 27 28 28 29 29 30 30 30 30 30 30 30 30
22 23 23 23 24 24 24 24 24 25 25 26 27 26 26 26 26 26 25 25 25 25 25 25 25 24 24 24 25 26 27 27 28 29 29 30 30 30 31 31 31 30 31
22 23 23 23 23 22 23 23 24 25 25 25 25 25 25 24 24 25 26 26 25 25 25 25 24 23 23 24 25 26 27 27 28 29 30 31 31 31 31 31 31 31 31
23 22 22 23 23 23 22 23 23 24 24 24 24 24 24 24 24 25 25 26 26 25 25 24 24 23 23 24 24 24 25 26 26 27 28 29 30 30 30 31 31 31 32
24 23 22 22 22 22 23 23 23 23 23 23 23 22 23 24 23 24 24 24 25 25 25 24 24 24 23 23 23 23 24 24 25 26 27 28 28 29 30 30 31 31 31
24 23 23 23 23 23 23 23 23 22 22 22 22 22 23 23 22 22 23 23 23 24 24 24 24 23 22 22 22 22 23 24 24 25 27 28 29 29 29 29 30 31 31
24 24 24 24 23 23 23 22 22 21 20 20 20 21 22 23 22 23 23 23 23 23 23 23 23 22 21 22 22 23 23 23 24 26 27 28 28 28 28 29 29 30 31
24 24 23 23 23 22 21 20 20 19 19 19 19 20 20 21 22 23 23 23 23 22 22 23 23 23 23 22 22 23 24 24 24 25 26 27 27 27 28 28 29 30 31
23 23 22 22 21 19 19 18 18 18 19 19 19 19 19 19 20 21 22 22 23 23 23 23 23 23 23 23 24 25 25 24 24 24 24 25 26 27 27 28 29 30 31
Wind_Direction
281 278 276 273 272 271 269 269 268 270 268 267 267 266 264 262 259 258 257 253 253 254 255 254 252 252 251 252 252 251 251 252 251 249 249 249 249 251 250 251 249 248 249
283 280 276 273 273 273 271 270 269 271 270 270 272 269 264 261 259 258 256 253 252 253 254 252 252 251 251 252 252 251 251 252 251 251 250 250 249 250 251 253 253 251 251
286 284 279 274 273 272 271 269 269 271 271 270 271 269 265 261 257 257 257 254 252 252 253 252 252 252 252 251 252 252 252 252 251 251 251 251 251 252 250 252 252 250 250
284 282 280 277 275 272 270 270 270 273 274 272 271 269 266 262 257 256 256 254 253 252 252 252 252 252 252 251 252 251 252 251 251 251 251 250 250 251 251 251 250 250 250
282 280 278 277 277 277 274 273 273 275 275 274 272 268 265 262 259 255 254 254 252 253 253 252 253 252 251 252 251 251 251 251 251 250 249 249 250 251 251 251 250 250 251
283 279 277 277 276 277 277 275 274 275 276 274 272 269 265 262 260 259 255 254 252 254 254 254 253 253 251 252 253 250 250 250 250 250 249 250 251 250 250 251 250 250 251
284 281 276 275 274 273 274 274 274 274 276 275 272 270 266 264 262 261 258 254 254 255 255 255 253 253 252 252 253 252 251 250 249 250 250 250 251 251 250 251 251 250 250
284 281 276 274 273 273 274 275 275 272 272 274 272 268 268 266 264 262 260 257 256 255 254 254 252 253 252 252 252 253 252 250 249 250 250 251 251 252 250 249 250 250 251
283 281 278 274 272 272 273 273 273 272 271 273 274 271 269 266 266 264 262 259 257 255 256 255 253 253 252 251 252 252 252 250 249 249 250 250 251 251 250 249 250 250 250
280 280 277 273 272 271 272 271 270 271 270 271 273 272 270 267 266 266 262 259 258 256 255 254 253 253 253 251 250 252 252 250 249 250 250 250 250 251 250 249 249 250 251
280 279 276 273 273 273 271 270 270 270 269 270 272 272 270 269 269 268 265 263 259 256 255 255 254 252 250 249 249 249 250 250 249 249 249 249 249 250 250 249 249 250 251
280 280 278 275 274 272 269 269 270 270 268 268 270 269 269 270 270 269 267 262 259 256 255 255 253 253 251 249 248 249 249 249 249 249 249 249 249 249 250 250 250 251 251
282 281 279 276 274 273 272 271 271 270 268 267 268 269 269 268 268 267 266 264 260 257 256 254 253 253 251 249 248 248 248 249 249 249 249 249 249 250 251 251 252 252 253
285 283 280 277 275 274 274 272 271 271 269 268 269 271 270 268 268 267 267 265 262 260 258 255 253 252 252 251 250 250 249 249 249 248 248 250 250 251 252 253 253 253 254
287 285 281 279 277 274 273 271 271 270 269 269 271 271 270 269 268 267 266 265 263 260 258 255 253 252 252 251 250 251 250 249 249 249 248 249 251 252 252 254 254 254 254
290 287 285 282 279 277 275 272 270 270 269 269 270 270 269 269 267 266 265 264 260 257 255 254 252 250 249 249 249 250 249 248 249 249 249 250 251 252 253 254 255 255 255
292 291 289 285 281 280 278 275 272 270 269 269 270 270 269 268 267 266 264 263 261 257 255 254 252 250 251 249 250 250 249 249 249 250 251 252 253 254 255 256 256 256 257
297 293 289 286 284 282 279 275 272 270 269 270 270 270 268 267 266 263 262 262 261 260 256 253 254 255 254 252 251 251 251 250 250 250 251 252 254 255 255 257 258 257 258
300 296 291 288 286 283 280 278 274 272 271 271 271 270 268 265 263 259 259 260 260 259 259 256 256 255 253 252 251 252 251 250 250 250 251 253 254 255 256 257 258 258 258
301 299 296 293 290 284 281 280 277 274 272 272 271 269 267 265 262 260 259 259 258 257 257 258 256 254 253 253 255 254 251 250 250 250 252 253 254 255 257 258 258 258 259
304 302 299 296 291 285 283 281 280 277 275 273 271 267 264 265 262 261 261 259 257 256 257 258 254 255 254 255 257 255 251 250 250 252 253 254 255 255 257 258 258 259 261
304 302 301 299 295 287 284 282 281 279 276 273 269 265 264 265 262 261 261 259 257 256 255 255 254 256 258 258 257 255 252 251 252 253 255 256 256 256 258 259 260 262 263
306 304 302 300 296 290 286 284 284 282 279 273 270 267 266 265 260 258 259 258 257 255 254 254 254 256 258 256 255 255 255 255 255 256 257 256 256 258 259 260 261 263 264
306 303 301 300 297 292 288 287 285 281 278 274 272 270 267 265 260 258 259 259 258 257 255 253 253 254 255 254 255 255 255 257 258 260 258 256 257 258 260 262 264 265 266
309 306 305 304 300 296 291 288 285 280 277 274 275 274 270 265 260 258 259 259 258 257 255 254 254 255 257 256 256 257 257 260 259 258 259 258 258 259 262 264 265 267 268
309 309 308 306 303 300 295 289 286 282 279 275 274 275 273 269 263 259 258 257 257 257 256 255 255 256 257 258 258 258 260 261 259 258 258 260 260 261 263 264 266 267 269
Height
5845 5844 5844 5844 5844 5844 5844 5843 5843 5843 5843 5842 5842 5842 5843 5843 5844 5845 5845 5846 5846 5847 5848 5849 5849 5850 5851 5852 5853 5854 5855 5856 5857 5858 5859 5860 5861 5862 5863 5864 5864 5866 5867
5841 5840 5840 5840 5839 5839 5839 5839 5839 5838 5838 5838 5837 5837 5838 5838 5838 5839 5840 5841 5842 5842 5843 5844 5844 5845 5846 5847 5848 5849 5850 5851 5852 5854 5855 5856 5857 5858 5858 5859 5860 5861 5863
5837 5836 5835 5835 5835 5834 5834 5834 5834 5833 5833 5832 5832 5832 5832 5832 5833 5833 5834 5835 5836 5837 5837 5838 5839 5840 5841 5842 5843 5844 5845 5847 5848 5849 5850 5851 5852 5853 5854 5855 5856 5857 5858
5832 5831 5831 5830 5830 5829 5829 5829 5829 5828 5827 5827 5826 5826 5826 5826 5827 5827 5828 5829 5830 5830 5831 5832 5833 5834 5835 5837 5838 5839 5840 5841 5843 5844 5845 5846 5847 5848 5849 5850 5851 5852 5853
5827 5826 5826 5825 5825 5824 5824 5823 5823 5822 5822 5821 5820 5820 5820 5820 5820 5821 5822 5823 5824 5824 5825 5826 5827 5828 5829 5831 5832 5833 5834 5836 5837 5838 5839 5841 5842 5843 5844 5845 5846 5847 5848
5821 5820 5820 5819 5819 5819 5818 5818 5817 5817 5816 5815 5814 5814 5814 5814 5814 5815 5816 5817 5818 5818 5819 5820 5821 5822 5823 5824 5826 5827 5829 5830 5832 5833 5834 5835 5837 5838 5839 5840 5841 5842 5843
5815 5814 5814 5813 5813 5813 5812 5812 5811 5811 5810 5809 5809 5809 5808 5808 5808 5809 5809 5810 5811 5812 5813 5814 5815 5816 5817 5818 5820 5821 5823 5824 5826 5827 5828 5830 5831 5832 5833 5834 5835 5837 5838
5808 5807 5807 5806 5806 5806 5806 5805 5805 5804 5804 5803 5803 5802 5803 5803 5803 5803 5803 5804 5805 5806 5807 5807 5809 5810 5811 5812 5814 5815 5817 5818 5820 5821 5823 5824 5825 5826 5827 5829 5830 5831 5833
5801 5800 5799 5799 5799 5799 5799 5798 5798 5798 5798 5797 5796 5796 5796 5797 5797 5797 5797 5798 5798 5799 5800 5801 5802 5803 5804 5806 5807 5809 5810 5812 5813 5815 5816 5817 5819 5820 5821 5823 5824 5826 5827
5794 5793 5792 5791 5791 5791 5791 5791 5791 5791 5791 5790 5790 5789 5790 5790 5791 5791 5791 5791 5791 5792 5793 5794 5795 5796 5797 5799 5800 5802 5804 5805 5807 5808 5810 5811 5812 5813 5815 5816 5818 5819 5821
5787 5786 5785 5784 5784 5784 5784 5784 5784 5784 5783 5783 5783 5782 5782 5782 5783 5784 5784 5784 5785 5785 5786 5787 5788 5789 5790 5791 5793 5795 5797 5799 5800 5801 5803 5804 5805 5807 5808 5810 5811 5813 5814
5780 5779 5778 5777 5776 5776 5776 5776 5776 5776 5776 5775 5775 5775 5775 5775 5775 5775 5776 5776 5776 5777 5778 5779 5780 5781 5782 5784 5786 5788 5789 5791 5793 5794 5796 5797 5799 5800 5801 5803 5805 5806 5807
5773 5772 5770 5770 5769 5768 5768 5768 5768 5768 5767 5767 5767 5767 5767 5767 5767 5767 5767 5768 5768 5769 5770 5772 5772 5773 5774 5776 5778 5780 5782 5783 5785 5787 5789 5790 5792 5793 5795 5796 5797 5799 5800
5766 5765 5763 5762 5761 5760 5760 5760 5760 5759 5759 5759 5759 5759 5759 5759 5759 5759 5759 5760 5760 5761 5762 5763 5764 5765 5767 5768 5770 5772 5774 5775 5777 5779 5781 5783 5784 5786 5787 5789 5790 5791 5793
5759 5757 5756 5755 5754 5753 5752 5752 5752 5751 5751 5751 5751 5751 5751 5751 5751 5751 5751 5751 5752 5752 5753 5754 5755 5757 5758 5760 5761 5763 5765 5767 5769 5771 5773 5775 5777 5778 5780 5781 5782 5783 5785
5753 5751 5749 5747 5746 5745 5744 5744 5743 5743 5743 5742 5742 5742 5742 5742 5742 5742 5742 5742 5743 5744 5745 5746 5747 5748 5749 5751 5753 5755 5757 5759 5761 5763 5765 5767 5768 5770 5771 5773 5774 5775 5776
5746 5744 5742 5740 5739 5738 5737 5736 5735 5734 5734 5734 5734 5733 5733 5733 5734 5734 5734 5734 5734 5735 5737 5738 5738 5740 5741 5743 5744 5746 5748 5751 5753 5755 5757 5758 5760 5762 5763 5764 5766 5767 5768
5739 5737 5735 5733 5731 5729 5728 5728 5727 5726 5726 5725 5725 5725 5725 5725 5725 5725 5726 5726 5727 5728 5729 5730 5731 5732 5733 5735 5736 5738 5740 5742 5744 5746 5748 5750 5751 5753 5754 5756 5757 5758 5759
5733 5730 5728 5726 5724 5722 5720 5719 5718 5718 5717 5717 5716 5716 5716 5717 5717 5717 5718 5719 5719 5720 5721 5722 5723 5724 5726 5727 5729 5730 5732 5734 5736 5738 5739 5741 5743 5744 5746 5747 5748 5749 5750
5727 5724 5722 5719 5717 5715 5713 5712 5710 5710 5709 5708 5708 5708 5708 5708 5709 5709 5710 5711 5711 5712 5713 5714 5716 5717 5718 5720 5721 5723 5724 5726 5728 5729 5731 5732 5734 5735 5737 5738 5739 5740 5741
5721 5718 5715 5713 5710 5708 5706 5705 5703 5702 5701 5700 5700 5700 5700 5700 5701 5701 5702 5703 5704 5705 5706 5707 5709 5710 5711 5712 5714 5715 5716 5718 5719 5721 5722 5724 5725 5727 5728 5729 5730 5731 5732
5715 5712 5709 5706 5704 5701 5700 5698 5696 5695 5694 5693 5693 5692 5692 5693 5693 5694 5695 5695 5696 5697 5699 5700 5701 5703 5704 5705 5706 5707 5709 5710 5712 5714 5714 5716 5716 5718 5719 5720 5721 5722 5722
5709 5706 5703 5700 5698 5695 5693 5691 5689 5688 5687 5686 5686 5686 5685 5685 5686 5687 5687 5688 5689 5690 5692 5693 5694 5696 5697 5698 5699 5700 5701 5703 5704 5705 5706 5707 5708 5709 5710 5711 5712 5713 5713
5704 5701 5698 5695 5691 5689 5686 5684 5682 5681 5680 5679 5679 5678 5678 5678 5679 5680 5680 5681 5683 5684 5685 5686 5688 5689 5690 5691 5692 5693 5694 5695 5696 5697 5697 5699 5699 5700 5701 5702 5702 5703 5703
5698 5695 5692 5689 5685 5683 5680 5678 5676 5675 5674 5673 5673 5672 5671 5671 5672 5672 5674 5675 5676 5677 5678 5679 5681 5682 5683 5684 5685 5686 5687 5688 5688 5689 5689 5690 5691 5692 5693 5693 5693 5693 5693
5693 5689 5686 5683 5680 5677 5675 5672 5670 5669 5668 5667 5666 5665 5664 5664 5664 5665 5666 5668 5669 5670 5671 5673 5674 5676 5676 5677 5678 5679 5679 5679 5680 5681 5682 5683 5683 5684 5684 5684 5684 5683 5683